Regional Weather Roundup
Issued by NWS

Home | Current Version | Previous Version | Graphics & Text | Print | Product List | Glossary On
Versions: 1 2 3 4 5 6 7 8 9 10 11 12 13 14 15 16 17 18 19 20 21 22 23 24 25 26 27 28 29 30 31 32 33 34 35 36 37 38 39 40 41 42 43 44 45 46 47 48 49 50
000
ASUS43 KTOP 200759
RWRKS

WEATHER ROUNDUP FOR KANSAS
NATIONAL WEATHER SERVICE GOODLAND KS
300 AM CDT MON OCT 20 2014

NOTE:  "FAIR" INDICATES FEW OR NO CLOUDS BELOW 12,000 FEET WITH NO
SIGNIFICANT WEATHER AND/OR OBSTRUCTIONS TO VISIBILITY.

KSZ001>006-013>018-027>032-041>047-200900-
NORTHWEST KANSAS

CITY           SKY/WX    TMP DP  RH WIND       PRES   REMARKS
GOODLAND       CLEAR     42  39  89 W5        30.13S
HAYS           CLEAR     50  45  81 N5        30.04R
HILL CITY      CLEAR     43  41  93 CALM      30.06S
RUSSELL        CLEAR     51  49  92 N5        30.02R
$$

KSZ061>065-074>080-084>089-200900-
SOUTHWEST KANSAS

CITY           SKY/WX    TMP DP  RH WIND       PRES   REMARKS
DODGE CITY     CLEAR     49  46  90 NW8       30.03R
ELKHART          N/A     52  43  72 NW6         N/A
GARDEN CITY    CLEAR     49  45  86 N9        30.04S
GREAT BEND     CLEAR     52  46  82 CALM      30.03R
LIBERAL        CLEAR     52  45  76 NW6       30.06S
$$

KSZ066>073-081>083-090>101-200900-
SOUTHEAST KANSAS

CITY           SKY/WX    TMP DP  RH WIND       PRES   REMARKS
CHANUTE        MOCLDY    58  54  86 S8        30.03S
COFFEYVILLE    CLOUDY    58  55  90 SE3       30.04S
HUTCHINSON     CLEAR     57  53  86 CALM      30.02S
NEWTON         PTCLDY    57  48  72 S5        30.04S
PARSONS        MOCLDY    58  55  90 S3        30.04F
WICHITA INTL   MOCLDY    60  54  80 SE5       30.01S
WICHITA JABRA  CLOUDY    60  54  80 S5        30.01F
WINFIELD       CLOUDY    60  55  83 S6        30.03S
$$

KSZ007>012-019>026-033>040-048>060-102>105-200900-
NORTHEAST KANSAS

CITY           SKY/WX    TMP DP  RH WIND       PRES   REMARKS
CONCORDIA      CLEAR     50  49  96 W5        30.02S
EMPORIA        PTCLDY    51  50  96 CALM      30.02S
LAWRENCE       CLEAR     50  48  93 CALM      30.02R
MANHATTAN      CLEAR     47  47 100 CALM      30.02S
OLATHE IND     CLEAR     54  51  90 SW5       30.02S
OLATHE EXE     CLEAR     56  52  86 SW6       30.01S
SALINA         CLEAR     52  48  86 CALM      30.02S
TOPEKA BILLARD CLEAR     52  50  93 CALM      30.02S
TOPEKA FORBES  CLEAR     53  50  89 CALM      30.01S
$$


USA.gov is the U.S. government's official web portal to all federal, state and local government web resources and services.